Location: Anare
(10.6236°N, 66.6506°W)
Time: 16:58:13
(UTC+00:00)

Cosmos 2181 Rocket - Pass Details

Date: 18 April 2024
Orbit: 952 x 1013 km, 82.9° (Epoch: 18 May)

Event Time Altitude Azimuth Distance (km) Brightness Sun altitude
Rises 23:41:08 0° 190° (S) 3,619 6.9 -16.0°
Reaches altitude 10° 23:43:38 10° 193° (SSW) 2,676 6.3 -16.6°
Maximum altitude 23:49:41 64° 274° (W) 1,052 4.4 -18.0°
Drops below altitude 10° 23:55:48 10° 355° (N) 2,702 6.6 -19.4°
Sets 23:58:20 0° 358° (N) 3,657 7.2 -20.1°
